Location: Newark
(48.6461°N, 4.3644°W)
Time: 10:52:27
(UTC+00:00)

Transit 4A - Pass Details

Date: 20 January 2020
Orbit: 872 x 973 km, 66.8° (Epoch: 26 February)

Event Time Altitude Azimuth Distance (km) Brightness Sun altitude
Rises 17:47:44 0° 316° (NW) 3,472 11.2 -8.6°
Reaches altitude 10° 17:50:38 10° 304° (NW) 2,528 10.7 -9.0°
Maximum altitude 17:55:13 25° 251° (WSW) 1,706 10.4 -9.7°
Drops below altitude 10° 17:59:50 10° 199° (SSW) 2,532 10.7 -10.4°
Sets 18:02:45 0° 186° (S) 3,478 11.2 -10.9°
